Total_Precipitation_Accumulation
1.01 0.77 1.24 1.29 1.14 1.10 1.13 1.15 1.11 1.13 1.11 1.13 1.07 1.00 0.92 0.80 0.70 0.61 0.53 0.44 0.48 0.57 0.54 0.49 0.44 0.38 0.30 0.27 0.31 0.38 0.46 0.56 0.62 0.64 0.74 0.81 0.80 0.89 1.01 1.21 1.41 1.61 1.21
0.78 0.70 1.23 1.34 1.15 1.01 0.99 1.01 1.08 1.07 1.04 1.04 1.01 1.03 0.86 0.69 0.62 0.57 0.51 0.47 0.44 0.48 0.49 0.48 0.47 0.42 0.35 0.36 0.40 0.44 0.47 0.53 0.64 0.69 0.89 0.98 0.93 0.93 0.84 0.98 1.23 1.41 1.18
0.76 0.70 1.00 1.26 1.11 0.96 0.93 0.95 1.02 1.02 1.00 1.00 1.01 1.05 0.81 0.67 0.63 0.58 0.58 0.56 0.51 0.44 0.45 0.52 0.55 0.52 0.44 0.45 0.49 0.51 0.54 0.57 0.69 0.81 1.21 1.81 1.31 0.96 0.93 1.03 1.12 1.09 1.15
0.84 0.80 0.97 1.26 1.12 0.99 0.97 1.05 1.08 1.07 1.07 1.12 1.09 0.94 0.73 0.69 0.67 0.64 0.66 0.67 0.59 0.47 0.43 0.44 0.50 0.49 0.47 0.50 0.53 0.50 0.57 0.62 0.76 0.90 1.28 1.79 1.71 1.27 1.13 1.19 1.14 1.01 1.16
0.84 0.92 1.23 1.34 1.13 1.04 0.98 1.04 1.16 1.20 1.16 1.16 1.05 0.80 0.69 0.68 0.70 0.69 0.73 0.70 0.64 0.59 0.51 0.45 0.46 0.44 0.44 0.46 0.51 0.55 0.60 0.70 0.91 0.99 1.31 1.70 1.98 1.43 1.10 1.24 1.31 1.14 1.21
0.79 0.82 1.03 1.26 1.12 1.03 1.03 1.10 1.09 1.01 1.01 1.07 0.97 0.79 0.67 0.71 0.72 0.71 0.67 0.63 0.64 0.62 0.57 0.54 0.50 0.47 0.47 0.43 0.48 0.56 0.66 0.76 0.89 1.11 1.37 1.72 1.88 1.36 1.07 1.19 1.34 1.37 1.38
0.84 0.76 0.84 1.06 1.01 0.96 1.02 1.09 1.07 0.95 0.98 0.99 0.94 0.87 0.71 0.68 0.70 0.72 0.63 0.56 0.55 0.55 0.54 0.54 0.50 0.48 0.45 0.45 0.46 0.52 0.64 0.63 0.76 1.08 1.31 1.67 1.51 1.18 1.00 1.13 1.38 1.51 1.47
0.87 0.80 0.77 0.90 0.89 0.87 0.92 0.99 1.01 0.96 1.04 1.00 0.87 0.82 0.75 0.65 0.64 0.64 0.60 0.60 0.56 0.57 0.57 0.55 0.49 0.45 0.45 0.45 0.46 0.50 0.58 0.50 0.51 0.79 1.06 1.44 1.45 1.29 1.02 1.01 1.21 1.39 1.48
0.95 0.87 0.82 0.80 0.81 0.89 1.02 1.00 0.96 1.01 1.10 1.05 0.85 0.77 0.77 0.64 0.56 0.55 0.57 0.59 0.57 0.61 0.65 0.59 0.48 0.42 0.46 0.49 0.49 0.51 0.54 0.54 0.55 0.70 0.85 1.17 1.26 1.25 1.05 0.98 1.10 1.23 1.43
0.92 0.82 0.75 0.73 0.75 0.79 0.91 0.97 0.92 0.90 0.98 0.99 0.87 0.84 0.84 0.68 0.57 0.56 0.55 0.58 0.62 0.65 0.72 0.67 0.57 0.51 0.51 0.54 0.54 0.52 0.51 0.47 0.49 0.60 0.83 0.90 1.12 1.15 0.99 0.92 0.97 1.03 1.13
0.82 0.75 0.70 0.68 0.70 0.75 0.84 0.86 0.94 0.96 0.98 0.90 0.84 0.88 0.79 0.58 0.54 0.57 0.51 0.63 0.74 0.88 0.89 0.81 0.72 0.64 0.59 0.51 0.51 0.52 0.42 0.36 0.54 0.64 0.80 0.94 1.13 1.11 0.95 0.90 0.94 0.89 0.89
0.82 0.77 0.69 0.71 0.69 0.68 0.72 0.97 1.13 1.00 0.90 0.79 0.81 0.79 0.77 0.74 0.71 0.52 0.53 0.69 0.76 0.85 0.89 0.83 0.79 0.65 0.49 0.39 0.44 0.46 0.32 0.36 0.49 0.57 0.67 0.96 1.17 1.19 1.05 0.93 0.91 0.85 0.79
0.75 0.73 0.66 0.64 0.58 0.57 0.71 0.90 1.08 1.13 1.09 1.05 0.90 0.89 0.85 0.77 0.66 0.51 0.49 0.54 0.59 0.68 0.67 0.74 0.73 0.52 0.42 0.43 0.46 0.39 0.34 0.40 0.48 0.56 0.72 1.05 1.22 1.23 1.15 1.00 0.95 0.88 0.81
0.65 0.67 0.62 0.58 0.53 0.51 0.51 0.62 0.78 0.84 0.83 0.84 0.85 0.79 0.80 0.82 0.75 0.64 0.58 0.62 0.65 0.64 0.69 0.76 0.74 0.61 0.52 0.44 0.43 0.42 0.43 0.43 0.50 0.63 0.76 0.98 1.23 1.28 1.26 1.13 1.08 1.00 0.91
0.62 0.61 0.61 0.60 0.57 0.63 0.61 0.57 0.57 0.62 0.68 0.73 0.80 0.72 0.67 0.70 0.73 0.75 0.69 0.74 0.70 0.69 0.71 0.73 0.62 0.60 0.60 0.51 0.47 0.49 0.54 0.49 0.58 0.63 0.74 0.89 1.22 1.56 1.59 1.45 1.28 1.13 1.06
0.58 0.66 0.68 0.61 0.63 0.61 0.56 0.59 0.63 0.62 0.66 0.69 0.73 0.66 0.60 0.60 0.63 0.74 0.73 0.78 0.69 0.71 0.79 0.72 0.66 0.69 0.69 0.60 0.51 0.53 0.54 0.51 0.58 0.66 0.75 0.90 1.06 1.45 1.79 1.80 1.65 1.46 1.26
0.50 0.62 0.73 0.69 0.70 0.65 0.60 0.63 0.67 0.66 0.63 0.66 0.69 0.62 0.58 0.61 0.62 0.75 0.79 0.77 0.75 0.78 0.82 0.85 0.84 0.79 0.71 0.63 0.58 0.55 0.54 0.54 0.61 0.66 0.69 0.87 0.90 0.94 1.34 1.78 1.93 1.85 1.60
0.46 0.55 0.67 0.68 0.72 0.74 0.73 0.73 0.70 0.66 0.67 0.72 0.75 0.70 0.66 0.64 0.67 0.87 0.92 0.81 0.86 0.97 1.01 1.03 0.99 0.91 0.82 0.78 0.77 0.70 0.62 0.59 0.63 0.68 0.70 0.75 0.80 0.73 0.80 1.00 1.28 1.49 1.70
0.46 0.50 0.56 0.62 0.82 0.83 0.78 0.84 0.84 0.80 0.86 0.89 0.92 0.89 0.84 0.81 0.89 1.06 1.13 1.04 1.02 1.17 1.14 1.04 1.05 1.07 0.98 0.98 0.95 0.94 0.81 0.71 0.70 0.68 0.77 0.87 0.88 0.85 0.86 0.71 0.80 0.95 1.29
0.39 0.43 0.49 0.59 0.72 0.82 0.96 1.04 1.11 1.12 1.11 1.23 1.30 1.29 1.12 1.07 1.13 1.28 1.38 1.34 1.30 1.41 1.41 1.29 1.38 1.38 1.28 1.32 1.19 1.10 1.02 0.96 0.92 0.89 0.90 0.97 1.03 0.94 0.96 0.84 0.79 0.67 0.82
0.30 0.34 0.41 0.59 0.75 0.90 1.00 1.13 1.38 1.55 1.64 1.63 1.63 1.70 1.62 1.44 1.52 1.64 1.61 1.82 1.89 1.87 1.87 1.81 1.93 1.96 1.69 1.51 1.78 1.77 1.37 1.10 0.98 1.00 1.06 1.09 1.15 1.15 1.12 1.05 0.96 0.78 0.67
0.22 0.26 0.34 0.49 0.73 0.97 1.17 1.34 1.53 1.84 2.00 2.00 2.06 2.01 1.96 1.85 1.87 1.79 1.87 2.08 2.13 2.24 2.33 2.17 2.30 2.38 2.07 1.76 2.14 2.57 2.10 1.68 1.12 0.90 1.00 1.11 1.24 1.27 1.20 1.04 1.00 0.92 0.82
0.18 0.20 0.27 0.40 0.63 0.92 1.22 1.46 1.65 1.88 2.14 2.24 2.15 2.10 2.13 2.21 2.26 2.15 2.11 2.23 2.25 2.32 2.52 2.56 2.51 2.61 2.53 2.20 2.16 2.60 2.48 2.15 1.72 1.16 1.03 1.10 1.25 1.34 1.35 1.30 1.15 1.06 0.97
0.20 0.21 0.25 0.39 0.55 0.76 1.01 1.33 1.58 1.84 2.15 2.22 2.20 2.17 2.21 2.33 2.42 2.38 2.33 2.39 2.40 2.35 2.48 2.57 2.55 2.75 2.93 2.66 2.39 2.17 2.09 2.11 2.11 1.67 1.26 1.17 1.32 1.38 1.41 1.32 1.30 1.31 1.28
0.26 0.26 0.33 0.47 0.61 0.78 0.99 1.31 1.63 1.82 1.99 2.19 2.20 2.12 2.05 2.12 2.14 2.12 2.24 2.39 2.41 2.38 2.39 2.58 2.70 2.87 2.86 2.78 2.64 2.51 2.32 2.12 1.79 1.88 1.74 1.49 1.47 1.35 1.42 1.51 1.50 1.53 1.52
0.36 0.39 0.47 0.59 0.78 0.91 1.00 1.13 1.29 1.50 1.78 1.92 2.02 2.06 2.07 2.07 1.95 1.88 1.98 2.09 2.18 2.23 2.22 2.28 2.43 2.58 2.75 2.89 2.82 2.64 2.52 2.40 2.20 2.07 1.80 1.65 1.72 1.55 1.42 1.44 1.47 1.51 1.66